Vorticity
17 14 -16 11 10 6 9 4 -0 2 6 2 -3 16 11 12 6 8 17 8 14 18 61 13 15 7 6 5 8 4 6 -1 10 18 14 11 15 11 8 7 9 7 5 4
5 -6 10 13 14 6 0 -1 -1 2 11 5 7 -4 3 9 17 35 24 4 36 21 40 10 12 3 6 9 9 12 4 1 4 17 14 9 9 13 13 11 9 9 10 9
10 -28 -25 17 6 8 3 6 8 7 9 8 24 26 -5 12 20 21 11 38 32 14 -6 -1 -2 -7 11 13 12 14 5 4 18 19 11 11 9 10 10 12 12 11 9 9
29 32 20 15 3 9 8 5 7 16 15 15 -20 -15 -1 33 1 11 33 13 44 5 28 19 1 21 7 7 10 5 2 9 14 12 11 10 8 9 10 12 12 11 13 12
-32 -13 19 16 5 15 9 5 4 7 0 12 44 22 -8 -15 34 26 36 31 21 5 6 21 2 -5 30 -6 -7 11 7 5 3 5 9 12 11 11 12 11 13 14 11 10
-0 4 -2 10 14 7 -5 11 14 13 40 37 35 14 2 3 8 1 13 25 38 31 24 4 25 15 8 16 11 -9 -12 10 6 0 2 -4 1 11 11 12 12 17 17 14
6 17 14 13 9 -1 5 10 19 21 11 2 -2 42 -12 40 12 10 7 4 -6 43 -3 8 -5 6 9 3 2 6 21 18 5 3 8 10 11 7 8 10 12 13 13 13
4 30 34 29 32 3 14 32 -11 10 7 0 -9 20 -4 -7 33 86 78 61 18 5 49 21 10 11 7 5 10 12 4 3 1 10 11 11 11 13 10 11 9 12 12 11
11 13 18 8 18 19 18 8 24 -10 14 17 10 21 -31 61 -3 -9 1 14 28 -3 21 10 -1 5 13 5 5 5 1 -0 8 8 11 10 14 14 12 12 9 7 11 12
18 6 -7 -9 10 11 10 30 9 9 10 9 23 -4 10 -7 5 -7 -7 9 11 21 -3 -2 3 -2 5 11 10 4 5 8 6 8 10 9 10 14 12 11 9 8 9 10
19 -11 3 19 4 -3 8 -11 -2 7 -1 2 7 17 -14 21 19 11 6 13 2 1 1 6 4 5 7 -1 10 10 11 10 11 13 13 15 17 13 10 7 6 7 10 11
10 23 32 -5 24 4 21 18 2 -27 20 4 7 12 5 14 9 5 -5 1 -5 -3 -5 -6 1 9 9 9 10 10 9 10 11 14 17 13 15 15 13 9 8 6 11 14
26 14 19 32 18 18 16 3 8 18 -2 8 -1 17 -1 17 26 -2 -4 -2 -0 -1 1 -0 5 8 10 11 10 10 11 13 15 16 15 13 13 13 14 13 9 9 11 13
14 14 -14 -2 22 25 6 14 8 22 -1 2 -18 3 3 -2 -6 -5 1 -2 0 1 3 4 7 10 10 10 11 10 9 11 13 14 13 13 14 14 13 16 15 16 17 16
14 4 17 -13 5 11 -1 -10 37 5 3 -15 15 12 11 3 4 -1 1 0 1 3 4 5 9 14 12 13 12 10 14 15 14 13 16 14 15 17 19 17 22 26 19 10
1 -8 24 13 -8 15 4 5 8 11 23 39 31 6 3 5 2 1 -1 6 2 3 5 15 17 14 15 18 16 15 15 14 13 16 14 14 16 17 18 21 21 22 19 18
8 16 11 9 21 5 25 16 6 -3 10 9 -3 -5 18 7 4 4 3 4 3 10 16 20 14 14 14 13 18 17 15 13 12 11 13 12 13 13 13 17 24 25 28 27
2 17 19 14 21 6 24 12 7 10 5 -5 4 18 15 5 6 4 3 7 11 15 14 12 12 13 15 14 15 13 11 9 10 12 12 10 10 9 7 7 6 7 9 11
4 11 10 5 -2 18 11 19 8 8 10 9 3 6 3 5 4 6 12 13 11 10 9 14 14 14 14 12 12 10 10 11 11 11 8 8 6 6 5 7 7 8 8 7
20 4 -22 16 8 -3 20 3 8 14 5 21 18 10 10 11 14 9 13 12 10 16 14 13 12 11 12 12 12 12 14 13 14 8 6 8 8 9 9 8 9 7 6 7
2 4 4 -8 11 16 8 12 12 -1 -3 19 15 9 5 4 8 9 12 11 10 13 11 11 12 13 11 13 14 16 14 12 10 8 9 9 9 8 8 6 7 7 7 8
8 -12 26 15 6 21 10 10 -5 8 3 5 11 12 17 23 24 25 16 7 18 15 13 12 13 14 14 11 8 9 11 11 8 8 7 6 6 5 5 5 5 5 5 6
2 -14 -12 4 31 -9 32 1 11 2 14 17 17 20 19 20 20 11 -1 20 14 13 12 11 10 8 9 10 10 9 10 6 5 5 6 6 6 6 6 5 5 6 5 5
-2 24 -5 1 17 19 9 5 5 14 15 13 16 19 17 15 13 13 17 14 11 9 8 9 9 9 9 10 7 5 5 6 7 7 7 7 6 6 6 6 7 7 7 7
-2 16 13 -3 7 6 2 5 12 15 14 12 15 18 14 15 16 13 12 9 9 9 8 9 9 9 7 5 6 7 7 7 6 6 7 7 8 8 8 8 8 6 6 6
10 3 13 11 13 6 16 14 14 12 12 9 8 12 11 10 10 9 9 8 8 8 9 9 7 5 6 7 7 7 7 7 8 7 8 8 8 7 6 6 6 5 6 6
Height
3077 3077 3073 3080 3082 3081 3080 3078 3072 3073 3077 3075 3075 3060 3054 3053 3057 3056 3054 3054 3053 3051 3049 3045 3047 3051 3053 3056 3059 3063 3066 3068 3067 3065 3066 3067 3068 3068 3068 3069 3071 3072 3073 3074
3074 3065 3072 3075 3077 3076 3076 3074 3069 3062 3069 3070 3066 3053 3050 3045 3047 3047 3045 3044 3044 3047 3049 3037 3042 3046 3049 3050 3053 3057 3059 3061 3061 3061 3059 3058 3059 3061 3062 3062 3062 3062 3063 3064
3065 3066 3069 3070 3071 3071 3071 3070 3067 3066 3061 3063 3061 3047 3040 3039 3038 3037 3038 3037 3039 3036 3043 3040 3042 3042 3043 3045 3049 3052 3054 3054 3054 3054 3054 3051 3051 3052 3053 3054 3054 3054 3053 3053
3059 3060 3062 3065 3066 3069 3065 3067 3064 3063 3061 3056 3056 3049 3022 3030 3027 3027 3027 3026 3024 3027 3031 3032 3036 3037 3037 3039 3043 3046 3048 3048 3048 3048 3047 3046 3044 3045 3045 3044 3044 3045 3044 3044
3051 3054 3057 3059 3061 3063 3061 3061 3061 3060 3057 3054 3049 3053 3024 3029 3025 3024 3022 3019 3018 3020 3027 3023 3026 3030 3031 3035 3037 3040 3042 3042 3042 3040 3041 3040 3038 3038 3038 3036 3035 3035 3034 3033
3048 3051 3054 3054 3056 3057 3057 3057 3057 3055 3053 3050 3043 3046 3023 3028 3028 3028 3021 3019 3014 3013 3018 3020 3021 3026 3029 3031 3034 3035 3037 3037 3036 3034 3033 3032 3031 3029 3029 3027 3026 3026 3025 3024
3046 3044 3045 3048 3052 3052 3051 3053 3055 3054 3050 3042 3038 3038 3033 3028 3024 3024 3017 3016 3012 3006 3007 3010 3017 3021 3023 3025 3028 3032 3033 3033 3030 3028 3026 3023 3023 3021 3019 3018 3017 3016 3016 3014
3043 3042 3039 3040 3043 3045 3045 3048 3050 3048 3045 3038 3035 3032 3033 3025 3020 3010 3008 3007 3009 3008 3003 3008 3014 3017 3019 3022 3024 3028 3029 3027 3024 3022 3019 3018 3015 3013 3011 3008 3007 3006 3004 3003
3037 3037 3038 3037 3039 3041 3040 3042 3044 3044 3044 3041 3032 3031 3030 3025 3022 3017 3010 3009 3009 3011 3004 3003 3007 3013 3015 3017 3020 3020 3020 3018 3017 3015 3012 3009 3007 3005 3003 3000 2997 2996 2995 2993
3031 3032 3033 3034 3034 3035 3036 3038 3040 3042 3042 3036 3027 3028 3028 3026 3025 3021 3020 3017 3015 3011 3001 3003 3005 3008 3013 3015 3015 3012 3010 3009 3008 3005 3004 3002 2999 2997 2995 2992 2989 2987 2985 2984
3026 3027 3027 3029 3026 3027 3030 3033 3036 3037 3036 3032 3028 3027 3026 3025 3023 3021 3019 3016 3016 3008 3011 3011 3011 3012 3011 3009 3009 3007 3006 3004 3002 3000 2997 2995 2992 2990 2987 2984 2981 2978 2976 2973
3020 3020 3019 3019 3019 3022 3023 3024 3028 3031 3032 3029 3026 3026 3022 3022 3022 3020 3018 3015 3013 3012 3014 3012 3012 3012 3010 3008 3005 3002 2999 2997 2994 2992 2990 2986 2984 2982 2980 2977 2973 2970 2967 2964
3013 3014 3015 3011 3015 3015 3015 3019 3022 3025 3026 3023 3025 3022 3019 3018 3019 3019 3017 3014 3011 3010 3009 3008 3009 3007 3005 3002 2999 2996 2994 2991 2989 2988 2985 2980 2978 2975 2972 2969 2966 2962 2959 2955
3008 3009 3009 3007 3004 3007 3009 3013 3016 3017 3017 3017 3016 3017 3018 3014 3016 3015 3013 3012 3011 3009 3007 3005 3002 2999 2998 2995 2993 2991 2987 2985 2984 2982 2979 2975 2972 2969 2966 2963 2959 2955 2951 2947
3002 3002 3004 3004 3003 3005 3006 3007 3008 3010 3012 3012 3012 3011 3013 3012 3012 3012 3012 3011 3010 3007 3004 3002 3000 2997 2995 2991 2988 2985 2983 2982 2979 2977 2974 2972 2968 2964 2961 2957 2952 2947 2944 2940
2997 2999 2999 2999 3000 3001 3003 3002 3003 3006 3007 3006 3006 3006 3008 3009 3009 3010 3010 3010 3008 3006 3004 3000 2997 2994 2991 2987 2985 2983 2981 2979 2977 2975 2971 2969 2966 2963 2958 2953 2947 2944 2939 2935
2993 2993 2995 2993 2995 2996 2999 2998 2999 3000 3001 3002 3002 3004 3004 3005 3006 3006 3005 3006 3005 3001 2999 2997 2994 2991 2989 2986 2984 2982 2981 2978 2976 2974 2971 2969 2966 2962 2957 2953 2948 2943 2938 2936
2988 2989 2991 2991 2993 2993 2991 2993 2995 2996 2997 2998 2997 2999 3001 3001 3002 3001 3000 2999 2997 2996 2994 2992 2990 2988 2986 2984 2983 2982 2980 2978 2976 2974 2971 2969 2966 2962 2959 2955 2951 2946 2941 2937
2984 2985 2988 2989 2990 2990 2989 2989 2991 2991 2993 2993 2994 2995 2996 2996 2996 2996 2995 2993 2992 2991 2990 2988 2986 2985 2984 2983 2983 2982 2980 2978 2976 2974 2972 2969 2965 2963 2960 2957 2953 2950 2946 2941
2981 2984 2987 2987 2986 2987 2984 2986 2987 2989 2988 2988 2989 2990 2991 2991 2991 2992 2991 2990 2990 2989 2988 2987 2986 2985 2985 2984 2983 2982 2981 2979 2977 2974 2973 2971 2967 2964 2961 2958 2955 2954 2950 2944
2977 2980 2981 2982 2982 2981 2981 2983 2985 2988 2988 2984 2985 2986 2986 2986 2988 2988 2988 2988 2988 2988 2988 2987 2986 2986 2986 2985 2984 2983 2982 2981 2978 2975 2975 2971 2969 2966 2963 2960 2958 2955 2951 2947
2970 2975 2976 2979 2980 2979 2977 2980 2983 2983 2981 2981 2982 2982 2981 2981 2981 2983 2985 2986 2987 2988 2988 2987 2987 2987 2987 2986 2985 2985 2984 2982 2979 2977 2975 2973 2971 2967 2965 2962 2959 2956 2953 2949
2969 2969 2971 2973 2973 2973 2974 2976 2978 2979 2978 2977 2977 2976 2976 2977 2979 2981 2984 2985 2987 2987 2987 2987 2988 2988 2988 2987 2986 2986 2985 2983 2980 2977 2977 2975 2972 2969 2966 2963 2960 2956 2953 2949
2963 2965 2966 2969 2969 2970 2973 2974 2975 2975 2975 2975 2975 2975 2975 2977 2979 2981 2983 2984 2985 2986 2986 2987 2988 2988 2988 2989 2988 2987 2984 2982 2981 2979 2978 2975 2972 2969 2966 2963 2959 2956 2952 2948
2961 2962 2963 2965 2966 2968 2970 2971 2972 2973 2974 2975 2975 2975 2975 2977 2979 2980 2983 2984 2985 2986 2987 2988 2989 2990 2990 2990 2988 2986 2985 2984 2982 2980 2977 2974 2971 2968 2965 2961 2957 2952 2948 2943
2956 2958 2960 2962 2964 2966 2967 2968 2970 2971 2973 2974 2975 2976 2977 2979 2981 2982 2984 2985 2986 2987 2989 2990 2991 2991 2991 2989 2988 2987 2986 2984 2982 2980 2977 2975 2971 2967 2963 2959 2954 2949 2945 2941